This is the latest recevied weather packets stored in our database for station/object JH0KSP-13. If no packets are shown the sender has not sent any weather packets the latest 10 day(s).
| Time | Temp. | Humidity | Pressure | Rain* | Wind** | Luminosity | Snow |
|---|---|---|---|---|---|---|---|
| 1777945617 | 17.22° C | 39% | 1019.8 hPa | 0 mm | - | - | - |
| 1777944416 | 16.11° C | 41% | 1019.9 hPa | 0 mm | - | - | - |
| 1777943409 | 16.11° C | 44% | 1020 hPa | 0 mm | - | - | - |
| 1777943215 | 16.11° C | 42% | 1020.1 hPa | 0 mm | - | - | - |
| 1777942809 | 16.11° C | 45% | 1020 hPa | 0 mm | - | - | - |
| 1777942209 | 15° C | 47% | 1020.1 hPa | 0 mm | - | - | - |
| 1777942015 | 15° C | 47% | 1020.1 hPa | 0 mm | - | - | - |
| 1777941609 | 15° C | 47% | 1020.1 hPa | 0 mm | - | - | - |
| 1777941010 | 13.89° C | 46% | 1020.2 hPa | 0 mm | - | - | - |
| 1777940816 | 13.89° C | 49% | 1020.2 hPa | 0 mm | - | - | - |
| 1777939616 | 12.78° C | 51% | 1020.2 hPa | 0 mm | - | - | - |
| 1777938415 | 12.22° C | 53% | 1020.1 hPa | 0 mm | - | - | - |
| 1777937216 | 12.22° C | 56% | 1020 hPa | 0 mm | - | - | - |
| 1777936016 | 11.11° C | 62% | 1020.1 hPa | 0 mm | - | - | - |
| 1777935008 | 10° C | 66% | 1019.9 hPa | 0 mm | - | - | - |
| 1777934817 | 10° C | 67% | 1019.9 hPa | 0 mm | - | - | - |
| 1777933617 | 8.89° C | 72% | 1019.7 hPa | 0 mm | - | - | - |
| 1777932415 | 8.89° C | 73% | 1019.6 hPa | 0 mm | - | - | - |
| 1777931217 | 7.78° C | 76% | 1019.5 hPa | 0 mm | - | - | - |
| 1777930016 | 7.78° C | 78% | 1019.3 hPa | 0 mm | - | - | - |
| 1777928817 | 7.22° C | 80% | 1018.8 hPa | 0 mm | - | - | - |
| 1777927616 | 7.22° C | 82% | 1018.2 hPa | 0 mm | - | - | - |
| 1777926415 | 7.22° C | 78% | 1017.7 hPa | 0 mm | - | - | - |
| 1777926009 | 7.22° C | 78% | 1017.5 hPa | 0 mm | - | - | - |
| 1777925409 | 7.22° C | 80% | 1017.2 hPa | 0 mm | - | - | - |
* Rain latest hour (hover to see other rain measurements)
** Current wind speed in m/s (hover to see current wind gust speed)